Total_Precipitation_Accumulation
0.93 1.03 1.06 0.85 0.61 0.49 0.47 0.45 0.44 0.47 0.52 0.60 0.55 0.52 0.58 0.62 0.59 0.66 0.75 0.86 0.95 1.00 1.01 1.04 1.10 1.16 1.23 1.26 1.34 1.38 1.37 1.26 0.95 0.83 0.72 0.62 0.64 0.64 0.67 0.60 0.63 0.65 0.58
0.80 0.79 0.65 0.47 0.37 0.34 0.30 0.25 0.22 0.22 0.22 0.29 0.32 0.32 0.40 0.51 0.52 0.57 0.61 0.63 0.68 0.72 0.75 0.81 0.87 0.93 1.01 1.06 1.10 1.14 1.23 1.27 1.14 0.97 0.82 0.68 0.62 0.64 0.78 0.82 0.81 0.73 0.70
0.44 0.42 0.39 0.32 0.30 0.26 0.21 0.19 0.17 0.16 0.16 0.20 0.23 0.26 0.29 0.39 0.50 0.56 0.58 0.54 0.53 0.51 0.50 0.54 0.63 0.70 0.79 0.86 0.89 0.96 1.06 1.13 1.18 1.04 0.94 0.86 0.72 0.67 0.77 0.79 0.87 1.02 0.96
0.25 0.23 0.22 0.23 0.23 0.23 0.23 0.23 0.18 0.14 0.16 0.15 0.14 0.16 0.24 0.34 0.43 0.51 0.55 0.52 0.49 0.48 0.48 0.47 0.50 0.51 0.55 0.65 0.77 0.93 1.04 1.16 1.21 1.12 1.07 1.03 0.92 0.83 0.87 0.93 1.00 1.08 1.15
0.15 0.15 0.18 0.18 0.18 0.18 0.20 0.20 0.17 0.14 0.12 0.08 0.06 0.08 0.16 0.21 0.26 0.40 0.45 0.45 0.48 0.45 0.46 0.49 0.51 0.47 0.44 0.46 0.48 0.64 0.81 1.00 1.14 1.18 1.17 1.18 1.10 1.02 0.93 0.98 1.09 1.20 1.30
0.03 0.05 0.08 0.11 0.13 0.15 0.15 0.15 0.13 0.11 0.09 0.07 0.05 0.05 0.07 0.08 0.14 0.21 0.30 0.40 0.47 0.50 0.50 0.53 0.51 0.46 0.48 0.45 0.44 0.46 0.54 0.65 0.82 0.92 0.99 1.04 1.08 1.14 1.19 1.22 1.24 1.30 1.36
0.01 0.01 0.02 0.03 0.04 0.05 0.05 0.05 0.05 0.04 0.04 0.03 0.04 0.04 0.04 0.04 0.04 0.07 0.17 0.33 0.47 0.48 0.47 0.61 0.67 0.60 0.59 0.61 0.62 0.54 0.46 0.43 0.54 0.71 0.83 0.87 0.94 1.03 1.21 1.28 1.31 1.30 1.21
0.00 0.00 0.00 0.01 0.01 0.02 0.02 0.02 0.02 0.02 0.02 0.03 0.04 0.07 0.04 0.02 0.02 0.03 0.08 0.23 0.38 0.42 0.42 0.54 0.79 0.83 0.73 0.69 0.72 0.81 0.71 0.54 0.51 0.54 0.68 0.77 0.80 0.95 1.23 1.43 1.39 1.20 1.14
0.00 0.00 0.00 0.00 0.01 0.01 0.01 0.01 0.00 0.01 0.02 0.02 0.03 0.05 0.04 0.03 0.02 0.03 0.06 0.17 0.28 0.32 0.36 0.48 0.64 0.79 0.73 0.69 0.69 0.75 0.78 0.67 0.59 0.58 0.52 0.59 0.69 0.85 1.08 1.31 1.38 1.31 1.19
0.00 0.00 0.00 0.00 0.01 0.01 0.01 0.01 0.01 0.01 0.02 0.02 0.01 0.01 0.01 0.01 0.02 0.03 0.05 0.10 0.15 0.15 0.22 0.38 0.53 0.54 0.50 0.55 0.67 0.78 0.87 0.71 0.60 0.66 0.63 0.65 0.67 0.84 1.13 1.30 1.35 1.27 1.15
0.00 0.00 0.01 0.01 0.01 0.02 0.02 0.02 0.01 0.01 0.02 0.02 0.02 0.02 0.02 0.01 0.02 0.03 0.05 0.07 0.09 0.09 0.14 0.28 0.37 0.35 0.34 0.41 0.53 0.66 0.80 0.65 0.67 0.79 0.81 0.78 0.84 0.90 1.01 1.12 1.25 1.29 1.15
0.00 0.01 0.01 0.01 0.01 0.01 0.03 0.02 0.01 0.01 0.02 0.03 0.05 0.05 0.05 0.04 0.02 0.03 0.05 0.07 0.08 0.09 0.15 0.21 0.25 0.22 0.22 0.26 0.33 0.45 0.56 0.64 0.72 0.83 0.89 0.84 0.79 0.85 0.90 0.93 1.02 1.09 1.03
0.00 0.01 0.00 0.01 0.01 0.01 0.01 0.01 0.01 0.01 0.01 0.02 0.04 0.06 0.06 0.07 0.04 0.02 0.03 0.05 0.06 0.10 0.13 0.17 0.18 0.19 0.22 0.24 0.27 0.35 0.49 0.68 0.84 0.84 0.77 0.73 0.74 0.80 0.79 0.88 0.97 1.01 1.00
0.00 0.00 0.00 0.00 0.01 0.02 0.01 0.00 0.01 0.01 0.01 0.01 0.02 0.04 0.05 0.07 0.04 0.03 0.05 0.07 0.08 0.11 0.13 0.13 0.14 0.19 0.22 0.23 0.29 0.40 0.55 0.75 0.82 0.74 0.70 0.60 0.61 0.74 0.77 0.76 0.80 0.84 0.89
0.00 0.00 0.00 0.00 0.01 0.02 0.01 0.00 0.00 0.00 0.00 0.01 0.02 0.03 0.02 0.03 0.02 0.01 0.03 0.05 0.05 0.06 0.10 0.16 0.21 0.28 0.34 0.40 0.50 0.57 0.58 0.62 0.68 0.61 0.65 0.59 0.56 0.63 0.65 0.63 0.63 0.60 0.61
0.00 0.00 0.00 0.00 0.01 0.01 0.02 0.01 0.00 0.00 0.00 0.00 0.00 0.01 0.02 0.00 0.00 0.01 0.01 0.02 0.02 0.05 0.12 0.21 0.29 0.37 0.43 0.50 0.55 0.56 0.55 0.56 0.59 0.56 0.55 0.55 0.49 0.49 0.50 0.50 0.51 0.52 0.54
0.00 0.00 0.00 0.00 0.00 0.00 0.01 0.03 0.03 0.02 0.01 0.00 0.00 0.00 0.00 0.00 0.00 0.01 0.01 0.02 0.02 0.04 0.10 0.22 0.42 0.47 0.43 0.47 0.51 0.49 0.42 0.36 0.36 0.37 0.36 0.35 0.34 0.35 0.38 0.38 0.39 0.43 0.45
0.00 0.00 0.00 0.00 0.00 0.00 0.00 0.00 0.01 0.03 0.04 0.04 0.02 0.00 0.00 0.00 0.00 0.01 0.01 0.03 0.03 0.03 0.06 0.13 0.26 0.30 0.32 0.36 0.34 0.31 0.24 0.19 0.18 0.18 0.18 0.19 0.21 0.23 0.24 0.28 0.28 0.27 0.32
0.00 0.00 0.00 0.00 0.00 0.00 0.00 0.00 0.00 0.00 0.01 0.03 0.03 0.01 0.00 0.00 0.01 0.00 0.01 0.02 0.03 0.05 0.07 0.11 0.14 0.16 0.16 0.15 0.14 0.13 0.11 0.11 0.10 0.09 0.11 0.14 0.15 0.15 0.15 0.15 0.19 0.22 0.21
0.00 0.00 0.00 0.00 0.00 0.00 0.00 0.00 0.00 0.00 0.01 0.01 0.01 0.01 0.01 0.02 0.03 0.02 0.02 0.02 0.03 0.04 0.05 0.05 0.06 0.06 0.05 0.05 0.05 0.06 0.06 0.08 0.08 0.07 0.07 0.09 0.11 0.11 0.10 0.09 0.09 0.10 0.13
0.00 0.00 0.00 0.00 0.00 0.00 0.00 0.00 0.00 0.00 0.01 0.01 0.00 0.00 0.00 0.01 0.02 0.03 0.03 0.02 0.02 0.03 0.03 0.02 0.02 0.02 0.03 0.03 0.04 0.04 0.04 0.07 0.09 0.08 0.07 0.07 0.09 0.09 0.09 0.09 0.08 0.07 0.08
0.00 0.00 0.00 0.00 0.00 0.00 0.00 0.00 0.01 0.01 0.01 0.01 0.01 0.00 0.00 0.01 0.01 0.02 0.02 0.02 0.02 0.02 0.02 0.02 0.03 0.03 0.04 0.04 0.04 0.04 0.05 0.07 0.10 0.10 0.09 0.08 0.08 0.08 0.07 0.07 0.07 0.08 0.08
0.00 0.00 0.00 0.00 0.00 0.00 0.00 0.00 0.01 0.01 0.02 0.01 0.01 0.01 0.01 0.01 0.01 0.02 0.02 0.02 0.02 0.02 0.03 0.03 0.04 0.04 0.05 0.05 0.06 0.06 0.07 0.08 0.11 0.14 0.14 0.12 0.10 0.08 0.07 0.07 0.06 0.06 0.06
0.00 0.00 0.00 0.00 0.00 0.00 0.00 0.00 0.00 0.01 0.02 0.02 0.02 0.01 0.01 0.01 0.01 0.01 0.02 0.02 0.02 0.03 0.03 0.04 0.05 0.05 0.06 0.07 0.07 0.08 0.09 0.10 0.12 0.14 0.17 0.18 0.14 0.11 0.09 0.08 0.07 0.06 0.06
0.00 0.00 0.00 0.00 0.00 0.00 0.00 0.00 0.00 0.01 0.02 0.02 0.02 0.02 0.01 0.01 0.01 0.01 0.01 0.02 0.02 0.03 0.03 0.04 0.04 0.05 0.05 0.06 0.08 0.09 0.12 0.11 0.10 0.12 0.15 0.17 0.17 0.16 0.14 0.12 0.10 0.09 0.08
0.00 0.00 0.00 0.00 0.00 0.00 0.00 0.00 0.00 0.01 0.02 0.02 0.01 0.01 0.01 0.01 0.01 0.01 0.01 0.01 0.02 0.02 0.03 0.03 0.04 0.04 0.05 0.06 0.08 0.11 0.12 0.10 0.09 0.10 0.12 0.16 0.18 0.18 0.18 0.17 0.15 0.13 0.12